sat.trackr.live / text

‹ back to catalog

STARLINK-35826

NORAD 66375 · 2025-254AD

PAYLOAD ACTIVE UNKNOWN

§ Identity

Operator
Country
US
Launch date
2025-11-06
Launch site
AFWTR
Launch vehicle
Mass (kg)
RCS (m²)

Purposes: comms

External: N2YO · Heavens-Above · Gunter

§ Orbital elements

Epoch: 2026-05-24T23:06:40.226112Z

Period
94.11 min
Inclination
53.1577°
Eccentricity
0.0001201
Mean motion
15.30199116 rev/d
Perigee alt
474.4 km
Apogee alt
476.0 km
Semi-major
6,853.4 km
B*
5.3793e-4
RAAN
235.2705°
Arg perigee
87.9143°
Mean anomaly
272.1995°
Rev number
3,069

§ Raw data

STARLINK-358261 66375U 25254AD  26144.96296558  .00015606  00000+0  53793-3 0  99992 66375  53.1577 235.2705 0001201  87.9143 272.1995 15.30199116 30696

JSON: /api/v1/satellites/66375 · /tle

For live sub-satellite position, see the globe view (requires WebGL).

§ Visibility from observer

Set your observer location to see the next 7 days of passes ≥ 10°. The values pass through the URL so the page stays shareable.

No JS? Fill the form by hand. The geolocation button needs JavaScript.